Time,TemperatureF,DewpointF,PressureIn,WindDirection,WindDirectionDegrees,WindSpeedMPH,WindSpeedGustMPH,Humidity,HourlyPrecipIn,Conditions,Clouds,dailyrainin,SoftwareType,DateUTC
2013-07-31 00:02:00,66.0,-99.9,-100.00,NNE,16,4.0,5.0,-999,0.00,,,0.44,,2013-07-31 05:02:00,
2013-07-31 00:12:00,66.0,-99.9,-100.00,NNE,16,4.0,5.0,-999,0.00,,,0.44,,2013-07-31 05:12:00,
2013-07-31 00:22:00,66.0,-99.9,-100.00,NNE,16,4.0,5.0,-999,0.00,,,0.44,,2013-07-31 05:22:00,
2013-07-31 00:43:00,65.0,-99.9,-100.00,NNE,21,4.0,6.0,-999,0.00,,,0.44,,2013-07-31 05:43:00,
2013-07-31 00:52:00,65.0,-99.9,-100.00,NNE,21,4.0,6.0,-999,0.00,,,0.44,,2013-07-31 05:52:00,
2013-07-31 01:12:00,65.0,-99.9,-100.00,NNE,23,3.0,4.0,-999,0.00,,,0.44,,2013-07-31 06:12:00,
2013-07-31 01:22:00,65.0,-99.9,-100.00,NNE,23,3.0,4.0,-999,0.00,,,0.44,,2013-07-31 06:22:00,
2013-07-31 01:32:00,65.0,-99.9,-100.00,NNE,14,3.0,4.0,-999,0.00,,,0.44,,2013-07-31 06:32:00,
2013-07-31 01:43:00,65.0,-99.9,-100.00,NNE,14,3.0,4.0,-999,0.00,,,0.44,,2013-07-31 06:43:00,
2013-07-31 01:53:00,65.0,-99.9,-100.00,NNE,14,3.0,4.0,-999,0.00,,,0.44,,2013-07-31 06:53:00,
2013-07-31 02:02:00,65.0,-99.9,-100.00,NNE,21,4.0,6.0,-999,0.00,,,0.44,,2013-07-31 07:02:00,
2013-07-31 02:12:00,65.0,-99.9,-100.00,NNE,21,4.0,6.0,-999,0.00,,,0.44,,2013-07-31 07:12:00,
2013-07-31 02:22:00,65.0,-99.9,-100.00,NNE,21,4.0,6.0,-999,0.00,,,0.44,,2013-07-31 07:22:00,
2013-07-31 02:43:00,65.0,-99.9,-100.00,North,1,3.0,6.0,-999,0.00,,,0.44,,2013-07-31 07:43:00,
2013-07-31 02:52:00,65.0,-99.9,-100.00,North,1,3.0,6.0,-999,0.00,,,0.44,,2013-07-31 07:52:00,
2013-07-31 03:12:00,65.0,-99.9,-100.00,NNW,333,3.0,4.0,-999,0.00,,,0.44,,2013-07-31 08:12:00,
2013-07-31 03:22:00,65.0,-99.9,-100.00,NNW,333,3.0,4.0,-999,0.00,,,0.44,,2013-07-31 08:22:00,
2013-07-31 03:42:00,65.0,-99.9,-100.00,NNW,330,4.0,5.0,-999,0.00,,,0.44,,2013-07-31 08:42:00,
2013-07-31 03:53:00,65.0,-99.9,-100.00,NNW,330,4.0,5.0,-999,0.00,,,0.44,,2013-07-31 08:53:00,
2013-07-31 04:02:00,65.0,-99.9,-100.00,NNW,345,3.0,3.0,-999,0.00,,,0.44,,2013-07-31 09:02:00,
2013-07-31 04:12:00,65.0,-99.9,-100.00,NNW,345,3.0,3.0,-999,0.00,,,0.44,,2013-07-31 09:12:00,
2013-07-31 04:22:00,65.0,-99.9,-100.00,NNW,345,3.0,3.0,-999,0.00,,,0.44,,2013-07-31 09:22:00,
2013-07-31 04:44:00,65.0,-99.9,-100.00,NNW,336,4.0,7.0,-999,0.00,,,0.44,,2013-07-31 09:44:00,
2013-07-31 04:52:00,65.0,-99.9,-100.00,NNW,336,4.0,7.0,-999,0.00,,,0.44,,2013-07-31 09:52:00,
2013-07-31 05:12:00,65.0,-99.9,-100.00,NNW,345,5.0,7.0,-999,0.00,,,0.44,,2013-07-31 10:12:00,
2013-07-31 05:23:00,65.0,-99.9,-100.00,NNW,345,5.0,7.0,-999,0.00,,,0.44,,2013-07-31 10:23:00,
2013-07-31 05:32:00,64.0,-99.9,-100.00,NNW,345,4.0,8.0,-999,0.00,,,0.44,,2013-07-31 10:32:00,
2013-07-31 05:44:00,64.0,-99.9,-100.00,NNW,345,4.0,8.0,-999,0.00,,,0.44,,2013-07-31 10:44:00,
2013-07-31 05:52:00,64.0,-99.9,-100.00,NNW,345,4.0,8.0,-999,0.00,,,0.44,,2013-07-31 10:52:00,
2013-07-31 06:03:00,65.0,-99.9,-100.00,NNW,327,3.0,4.0,-999,0.00,,,0.44,,2013-07-31 11:03:00,
2013-07-31 06:12:00,65.0,-99.9,-100.00,NNW,327,3.0,4.0,-999,0.00,,,0.44,,2013-07-31 11:12:00,
2013-07-31 06:22:00,65.0,-99.9,-100.00,NNW,327,3.0,4.0,-999,0.00,,,0.44,,2013-07-31 11:22:00,
2013-07-31 06:33:00,64.0,-99.9,-100.00,NNW,341,4.0,6.0,-999,0.00,,,0.44,,2013-07-31 11:33:00,
2013-07-31 06:43:00,64.0,-99.9,-100.00,NNW,341,4.0,6.0,-999,0.00,,,0.44,,2013-07-31 11:43:00,
2013-07-31 06:53:00,64.0,-99.9,-100.00,NNW,341,4.0,6.0,-999,0.00,,,0.44,,2013-07-31 11:53:00,
2013-07-31 07:03:00,64.0,-99.9,-100.00,NNW,327,3.0,5.0,-999,0.00,,,0.44,,2013-07-31 12:03:00,
2013-07-31 07:13:00,64.0,-99.9,-100.00,NNW,327,3.0,5.0,-999,0.00,,,0.44,,2013-07-31 12:13:00,
2013-07-31 07:22:00,64.0,-99.9,-100.00,NNW,327,3.0,5.0,-999,0.00,,,0.44,,2013-07-31 12:22:00,
2013-07-31 07:43:00,64.0,-99.9,-100.00,NNW,328,5.0,6.0,-999,0.00,,,0.41,,2013-07-31 12:43:00,
2013-07-31 07:53:00,64.0,-99.9,-100.00,NNW,328,5.0,6.0,-999,0.00,,,0.41,,2013-07-31 12:53:00,
2013-07-31 08:12:00,65.0,-99.9,-100.00,NNE,18,2.0,4.0,-999,0.00,,,0.38,,2013-07-31 13:12:00,
2013-07-31 08:22:00,65.0,-99.9,-100.00,NNE,18,2.0,4.0,-999,0.00,,,0.38,,2013-07-31 13:22:00,
2013-07-31 08:43:00,65.0,-99.9,-100.00,North,352,1.0,3.0,-999,0.00,,,0.35,,2013-07-31 13:43:00,
2013-07-31 08:53:00,65.0,-99.9,-100.00,North,352,1.0,3.0,-999,0.00,,,0.35,,2013-07-31 13:53:00,
2013-07-31 09:02:00,65.0,-99.9,-100.00,North,351,3.0,4.0,-999,0.00,,,0.33,,2013-07-31 14:02:00,
2013-07-31 09:13:00,65.0,-99.9,-100.00,North,351,3.0,4.0,-999,0.00,,,0.33,,2013-07-31 14:13:00,
2013-07-31 09:23:00,65.0,-99.9,-100.00,North,351,3.0,4.0,-999,0.00,,,0.33,,2013-07-31 14:23:00,
2013-07-31 09:43:00,66.0,-99.9,-100.00,North,2,3.0,5.0,-999,0.00,,,0.30,,2013-07-31 14:43:00,
2013-07-31 09:53:00,66.0,-99.9,-100.00,North,2,3.0,5.0,-999,0.00,,,0.30,,2013-07-31 14:53:00,
2013-07-31 10:12:00,66.0,-99.9,-100.00,NW,315,4.0,6.0,-999,0.00,,,0.25,,2013-07-31 15:12:00,
2013-07-31 10:23:00,66.0,-99.9,-100.00,NW,315,4.0,6.0,-999,0.00,,,0.25,,2013-07-31 15:23:00,
2013-07-31 10:44:00,67.0,-99.9,-100.00,NW,322,4.0,7.0,-999,0.00,,,0.08,,2013-07-31 15:44:00,
2013-07-31 10:53:00,67.0,-99.9,-100.00,NW,322,4.0,7.0,-999,0.00,,,0.08,,2013-07-31 15:53:00,
2013-07-31 11:00:00,69.0,-99.9,-100.00,NNW,329,5.0,11.0,-999,0.00,,,0.03,,2013-07-31 16:00:00,
2013-07-31 11:12:00,69.0,-99.9,-100.00,North,359,4.0,8.0,-999,0.00,,,0.05,,2013-07-31 16:12:00,
2013-07-31 11:22:00,69.0,-99.9,-100.00,North,359,4.0,8.0,-999,0.00,,,0.05,,2013-07-31 16:22:00,
2013-07-31 11:44:00,69.0,-99.9,-100.00,NNW,329,5.0,11.0,-999,0.00,,,0.03,,2013-07-31 16:44:00,
2013-07-31 11:53:00,69.0,-99.9,-100.00,NNW,329,5.0,11.0,-999,0.00,,,0.03,,2013-07-31 16:53:00,
2013-07-31 12:43:00,71.0,-99.9,-100.00,NW,311,5.0,11.0,-999,0.00,,,0.01,,2013-07-31 17:43:00,
2013-07-31 12:53:00,71.0,-99.9,-100.00,NW,311,5.0,11.0,-999,0.00,,,0.01,,2013-07-31 17:53:00,
2013-07-31 13:02:00,73.0,-99.9,-100.00,NW,309,3.0,9.0,-999,0.00,,,0.01,,2013-07-31 18:02:00,
2013-07-31 13:13:00,73.0,-99.9,-100.00,NW,309,3.0,9.0,-999,0.00,,,0.01,,2013-07-31 18:13:00,
2013-07-31 13:23:00,73.0,-99.9,-100.00,NW,309,3.0,9.0,-999,0.00,,,0.01,,2013-07-31 18:23:00,
2013-07-31 13:30:00,75.0,-99.9,-100.00,WNW,284,3.0,9.0,-999,0.00,,,0.01,,2013-07-31 18:30:00,
2013-07-31 13:43:00,73.0,-99.9,-100.00,WNW,292,5.0,9.0,-999,0.00,,,0.01,,2013-07-31 18:43:00,
2013-07-31 13:52:00,73.0,-99.9,-100.00,WNW,292,5.0,9.0,-999,0.00,,,0.01,,2013-07-31 18:52:00,
2013-07-31 14:12:00,75.0,-99.9,-100.00,WNW,284,3.0,9.0,-999,0.00,,,0.01,,2013-07-31 19:12:00,
2013-07-31 14:23:00,75.0,-99.9,-100.00,WNW,284,3.0,9.0,-999,0.00,,,0.01,,2013-07-31 19:23:00,
2013-07-31 15:13:00,74.0,-99.9,-100.00,NW,308,7.0,12.0,-999,0.00,,,0.01,,2013-07-31 20:13:00,
2013-07-31 15:23:00,74.0,-99.9,-100.00,NW,308,7.0,12.0,-999,0.00,,,0.01,,2013-07-31 20:23:00,
2013-07-31 15:43:00,76.0,-99.9,-100.00,WNW,287,3.0,7.0,-999,0.00,,,0.01,,2013-07-31 20:43:00,
2013-07-31 15:53:00,76.0,-99.9,-100.00,WNW,287,3.0,7.0,-999,0.00,,,0.01,,2013-07-31 20:53:00,
2013-07-31 16:13:00,79.0,-99.9,-100.00,WNW,291,2.0,8.0,-999,0.00,,,0.01,,2013-07-31 21:13:00,
2013-07-31 16:22:00,79.0,-99.9,-100.00,WNW,291,2.0,8.0,-999,0.00,,,0.01,,2013-07-31 21:22:00,
2013-07-31 16:43:00,78.0,-99.9,-100.00,West,275,4.0,7.0,-999,0.00,,,-99.99,,2013-07-31 21:43:00,
2013-07-31 16:53:00,78.0,-99.9,-100.00,West,275,4.0,7.0,-999,0.00,,,-99.99,,2013-07-31 21:53:00,
2013-07-31 17:13:00,78.0,-99.9,-100.00,SW,228,4.0,7.0,-999,0.00,,,-99.99,,2013-07-31 22:13:00,
2013-07-31 17:23:00,78.0,-99.9,-100.00,SW,228,4.0,7.0,-999,0.00,,,-99.99,,2013-07-31 22:23:00,
2013-07-31 17:33:00,78.0,-99.9,-100.00,WSW,257,6.0,10.0,-999,0.00,,,0.01,,2013-07-31 22:33:00,
2013-07-31 17:43:00,78.0,-99.9,-100.00,WSW,257,6.0,10.0,-999,0.00,,,0.01,,2013-07-31 22:43:00,
2013-07-31 17:53:00,78.0,-99.9,-100.00,WSW,257,6.0,10.0,-999,0.00,,,0.01,,2013-07-31 22:53:00,
2013-07-31 18:12:00,78.0,-99.9,-100.00,West,267,5.0,10.0,-999,0.00,,,0.01,,2013-07-31 23:12:00,
2013-07-31 18:22:00,78.0,-99.9,-100.00,West,267,5.0,10.0,-999,0.00,,,0.01,,2013-07-31 23:22:00,
2013-07-31 18:32:00,80.0,-99.9,-100.00,West,265,5.0,10.0,-999,0.00,,,0.01,,2013-07-31 23:32:00,
2013-07-31 18:43:00,80.0,-99.9,-100.00,West,265,5.0,10.0,-999,0.00,,,0.01,,2013-07-31 23:43:00,
2013-07-31 18:53:00,80.0,-99.9,-100.00,West,265,5.0,10.0,-999,0.00,,,0.01,,2013-07-31 23:53:00,
2013-07-31 19:03:00,79.0,-99.9,-100.00,WSW,242,4.0,8.0,-999,0.00,,,0.01,,2013-08-01 00:03:00,
2013-07-31 19:12:00,79.0,-99.9,-100.00,WSW,242,4.0,8.0,-999,0.00,,,0.01,,2013-08-01 00:12:00,
2013-07-31 19:22:00,79.0,-99.9,-100.00,WSW,242,4.0,8.0,-999,0.00,,,0.01,,2013-08-01 00:22:00,
2013-07-31 19:32:00,78.0,-99.9,-100.00,WSW,245,5.0,8.0,-999,0.00,,,0.00,,2013-08-01 00:32:00,
2013-07-31 19:43:00,78.0,-99.9,-100.00,WSW,245,5.0,8.0,-999,0.00,,,0.00,,2013-08-01 00:43:00,
2013-07-31 19:53:00,78.0,-99.9,-100.00,WSW,245,5.0,8.0,-999,0.00,,,0.00,,2013-08-01 00:53:00,
2013-07-31 20:03:00,78.0,-99.9,-100.00,WNW,296,5.0,10.0,-999,0.00,,,0.00,,2013-08-01 01:03:00,
2013-07-31 20:13:00,78.0,-99.9,-100.00,WNW,296,5.0,10.0,-999,0.00,,,0.00,,2013-08-01 01:13:00,
2013-07-31 20:22:00,78.0,-99.9,-100.00,WNW,296,5.0,10.0,-999,0.00,,,0.00,,2013-08-01 01:22:00,
2013-07-31 20:33:00,77.0,-99.9,-100.00,NW,310,4.0,9.0,-999,0.00,,,0.00,,2013-08-01 01:33:00,
2013-07-31 20:43:00,77.0,-99.9,-100.00,NW,310,4.0,9.0,-999,0.00,,,0.00,,2013-08-01 01:43:00,
2013-07-31 20:53:00,77.0,-99.9,-100.00,NW,310,4.0,9.0,-999,0.00,,,0.00,,2013-08-01 01:53:00,
2013-07-31 21:03:00,76.0,-99.9,-100.00,WNW,294,3.0,7.0,-999,0.00,,,0.00,,2013-08-01 02:03:00,
2013-07-31 21:13:00,76.0,-99.9,-100.00,WNW,294,3.0,7.0,-999,0.00,,,0.00,,2013-08-01 02:13:00,
2013-07-31 21:22:00,76.0,-99.9,-100.00,WNW,294,3.0,7.0,-999,0.00,,,0.00,,2013-08-01 02:22:00,
2013-07-31 21:32:00,75.0,-99.9,-100.00,NW,307,3.0,6.0,-999,0.00,,,0.00,,2013-08-01 02:32:00,
2013-07-31 21:43:00,75.0,-99.9,-100.00,NW,307,3.0,6.0,-999,0.00,,,0.00,,2013-08-01 02:43:00,
2013-07-31 21:53:00,75.0,-99.9,-100.00,NW,307,3.0,6.0,-999,0.00,,,0.00,,2013-08-01 02:53:00,
2013-07-31 22:02:00,74.0,-99.9,-100.00,WNW,292,4.0,6.0,-999,0.00,,,0.00,,2013-08-01 03:02:00,
2013-07-31 22:12:00,74.0,-99.9,-100.00,WNW,292,4.0,6.0,-999,0.00,,,0.00,,2013-08-01 03:12:00,
2013-07-31 22:22:00,74.0,-99.9,-100.00,WNW,292,4.0,6.0,-999,0.00,,,0.00,,2013-08-01 03:22:00,
2013-07-31 22:32:00,73.0,-99.9,-100.00,WNW,300,4.0,6.0,-999,0.00,,,0.00,,2013-08-01 03:32:00,
2013-07-31 22:43:00,73.0,-99.9,-100.00,WNW,300,4.0,6.0,-999,0.00,,,0.00,,2013-08-01 03:43:00,
2013-07-31 22:53:00,73.0,-99.9,-100.00,WNW,300,4.0,6.0,-999,0.00,,,0.00,,2013-08-01 03:53:00,
2013-07-31 23:13:00,72.0,-99.9,-100.00,West,267,2.0,3.0,-999,0.00,,,0.00,,2013-08-01 04:13:00,
2013-07-31 23:22:00,72.0,-99.9,-100.00,West,267,2.0,3.0,-999,0.00,,,0.00,,2013-08-01 04:22:00,
2013-07-31 23:43:00,71.0,-99.9,-100.00,WSW,240,2.0,3.0,-999,0.00,,,0.00,,2013-08-01 04:43:00,
2013-07-31 23:53:00,71.0,-99.9,-100.00,WSW,240,2.0,3.0,-999,0.00,,,0.00,,2013-08-01 04:53:00,